Wind_Speed
50 57 58 56 57 61 66 72 75 72 65 59 47 35 27 21 15 9 9 21 30 41 51 68 84 97 104 109 103 97 98 96 89 86 84 80 74 70 64 60 54 49 48 45 41 39 36
53 58 58 57 57 62 67 73 78 75 67 61 53 41 32 26 22 16 8 10 18 32 46 59 74 88 98 104 106 101 98 99 94 90 88 83 79 72 67 61 54 49 50 47 43 40 36
54 58 57 57 59 62 66 73 77 74 69 64 54 46 36 30 24 17 11 8 10 16 32 49 65 79 91 99 108 103 99 101 98 92 90 87 81 75 67 60 54 54 50 46 43 40 38
54 58 58 55 58 60 65 69 75 76 68 65 56 49 41 32 24 21 17 10 5 6 19 37 52 69 86 95 102 104 99 99 100 94 89 87 83 79 70 62 61 56 53 49 45 41 38
54 55 56 56 57 59 64 66 73 77 73 69 63 53 45 37 28 22 20 13 11 4 8 27 45 63 78 91 94 102 100 96 100 98 94 92 86 80 75 70 65 57 54 52 49 47 44
48 54 55 54 54 57 62 63 68 74 76 72 68 62 51 43 35 30 23 19 18 16 9 18 34 55 70 90 93 102 101 96 97 100 95 92 89 83 78 69 63 63 60 57 53 51 48
44 51 54 52 53 54 57 61 64 71 77 76 71 67 59 51 42 34 27 21 21 19 10 15 30 48 64 82 93 96 102 97 95 98 96 91 87 84 79 73 69 66 61 58 56 55 52
46 50 54 53 54 52 54 58 61 65 71 77 74 70 64 55 49 40 33 27 26 22 17 13 26 42 59 76 89 92 100 98 91 92 96 92 88 85 79 77 72 67 64 60 61 59 56
42 48 54 51 54 53 50 51 56 60 65 71 77 74 70 63 57 50 42 38 31 22 21 17 25 37 57 73 87 91 96 98 92 86 93 92 89 85 81 78 75 71 65 64 66 62 60
41 44 50 50 56 56 52 50 52 56 60 65 69 76 72 69 64 58 53 49 40 29 22 22 20 32 48 62 78 86 87 96 92 86 89 92 89 87 83 81 77 73 70 70 69 66 64
38 41 44 45 51 55 53 49 50 52 55 59 64 68 75 71 68 64 60 55 48 39 29 20 18 25 37 50 66 79 82 91 95 89 85 90 88 85 85 82 80 76 74 73 71 69 67
33 40 37 44 49 50 49 51 50 51 51 54 57 62 67 73 72 68 63 57 55 50 39 30 22 16 26 39 53 71 78 84 91 90 85 85 86 84 85 85 82 80 79 77 74 73 71
31 32 34 37 41 45 45 46 51 48 48 49 53 56 59 65 70 73 69 65 62 60 51 43 30 21 22 31 42 60 74 78 87 86 83 79 81 80 79 80 82 80 79 78 77 75 72
27 28 31 31 36 37 39 41 45 47 46 45 47 51 52 56 61 66 72 70 68 63 56 52 44 32 24 25 33 47 64 72 77 84 84 78 74 76 75 76 78 78 77 76 74 73 71
19 25 24 28 31 31 34 35 42 43 42 44 44 46 49 51 54 57 62 66 71 69 63 58 50 43 32 23 23 33 54 64 66 73 80 79 72 70 70 71 71 71 70 69 68 67 66
15 20 20 22 27 25 25 29 32 36 40 39 41 42 42 45 46 51 54 58 61 64 66 63 58 49 40 30 21 23 40 53 55 62 68 73 69 65 64 63 62 60 61 61 62 60 58
14 17 16 19 23 25 21 25 28 31 34 37 39 36 38 38 38 40 44 49 52 54 56 58 59 56 47 36 25 17 23 36 45 50 54 61 65 64 63 62 60 58 58 57 56 56 57
17 18 17 15 15 22 23 25 26 27 29 31 35 37 38 35 36 35 35 38 40 44 47 48 49 48 48 43 31 23 16 18 25 32 38 40 45 53 58 60 60 59 58 58 59 61 63
24 19 15 16 13 17 20 20 21 23 26 25 27 32 34 34 35 36 36 34 33 32 33 36 38 38 38 36 36 33 24 13 15 19 22 26 34 40 48 53 57 59 61 63 65 66 69
27 24 19 17 12 14 13 16 17 19 20 21 23 28 30 31 30 31 31 33 34 33 29 27 25 27 28 28 26 24 23 21 17 12 3 9 20 29 37 43 50 55 60 62 65 68 70
31 29 26 21 19 17 15 11 14 15 16 15 14 20 23 21 25 25 28 26 28 28 28 27 25 24 24 23 23 18 15 14 9 6 3 1 4 8 12 16 21 25 31 34 37 42 44
33 33 30 28 25 22 20 18 16 16 14 12 14 17 18 14 12 14 19 21 21 21 22 21 20 17 16 17 14 14 13 9 10 9 7 7 7 12 16 18 22 25 31 30 35 40 44
36 36 36 36 34 29 27 24 23 20 17 14 15 12 12 12 12 10 12 16 19 19 18 17 17 15 16 16 14 11 8 10 8 11 13 13 14 17 21 18 22 28 37 40 44 46 50
36 37 39 39 42 38 33 29 27 25 26 20 14 12 12 11 12 14 17 16 18 18 18 18 18 16 17 21 23 20 21 23 25 23 25 27 31 33 35 39 34 39 44 48 51 56 58
40 39 41 44 44 47 42 37 34 33 31 29 22 18 18 18 19 16 20 23 20 20 19 19 23 23 23 26 25 25 27 29 33 35 36 39 41 43 45 47 47 49 51 56 59 61 66
45 44 46 42 45 48 46 42 41 39 35 33 31 27 27 25 24 23 26 26 27 27 26 27 29 30 29 30 29 31 36 36 36 38 44 48 48 49 49 48 46 49 55 59 63 64 72
51 49 47 50 45 44 46 43 44 44 45 44 42 39 38 36 36 35 34 33 29 30 33 35 38 39 40 43 41 39 36 41 41 45 49 50 51 54 60 60 63 67 67 69 73 77 76
61 61 55 53 50 53 52 51 48 46 44 45 45 44 44 44 45 46 42 40 42 42 42 44 46 48 48 53 53 54 54 52 52 53 60 62 66 69 68 67 67 70 75 78 81 82 85
67 63 61 61 60 58 60 57 55 52 52 51 53 50 51 51 48 49 54 51 51 49 51 51 53 56 56 53 55 57 61 63 62 61 68 69 72 77 80 83 84 87 88 89 89 89 94
Wind_Direction
354 357 354 355 356 354 354 358 360 2 2 360 354 350 354 360 4 341 262 235 229 218 216 214 211 211 211 211 209 209 209 210 212 213 214 215 218 219 219 216 216 219 221 223 224 227 231
357 357 356 357 358 358 357 1 3 5 6 7 4 5 11 14 17 5 337 256 233 219 212 209 210 208 208 209 209 208 208 208 210 211 213 214 218 218 219 221 219 217 222 224 225 228 231
356 358 359 358 359 0 1 2 6 9 9 12 11 12 20 19 24 21 4 316 261 231 214 210 205 205 206 206 208 207 207 207 209 210 212 214 216 217 219 221 223 218 221 224 225 227 232
357 358 1 360 360 2 4 6 8 11 15 19 19 19 20 26 33 34 28 8 337 243 207 205 204 202 202 204 206 206 206 207 208 210 212 213 215 217 217 217 219 218 218 221 225 228 232
359 2 3 1 1 4 5 8 9 14 18 21 25 25 27 27 33 45 41 43 46 55 190 196 199 195 199 200 204 205 205 206 207 208 210 212 213 216 217 217 218 219 218 222 226 230 234
0 5 5 3 4 4 6 10 13 17 22 25 25 29 31 32 32 39 39 42 51 57 136 182 190 193 191 197 202 203 204 204 206 208 209 211 213 215 217 219 221 220 219 222 227 233 237
5 5 6 6 5 6 6 11 16 18 24 28 27 32 32 36 36 42 43 54 58 60 81 156 180 185 188 194 199 201 204 204 205 206 208 210 212 215 217 218 220 222 222 225 230 235 239
3 6 7 8 8 8 8 10 16 19 24 29 31 31 36 39 42 45 50 50 60 70 76 128 167 178 184 190 195 200 203 204 205 205 208 209 211 215 217 220 222 223 224 227 233 237 241
0 4 5 9 9 10 10 11 13 19 24 29 33 34 35 38 44 49 54 57 53 64 89 108 155 175 183 189 194 198 200 204 204 206 208 210 212 215 217 220 223 225 225 228 234 238 241
355 4 5 10 11 10 11 13 15 18 24 28 32 37 37 38 44 50 55 56 54 57 74 110 146 169 183 192 194 197 199 202 204 206 208 211 213 215 217 220 224 227 228 229 234 239 243
358 3 7 10 12 9 8 12 14 18 22 26 30 35 40 42 45 47 49 49 52 59 67 88 120 161 178 188 194 197 198 200 202 204 207 211 213 215 218 221 224 227 231 234 237 240 244
356 360 10 7 12 11 9 10 13 17 20 26 28 32 37 41 46 49 50 53 58 60 67 80 96 134 166 181 190 196 198 200 202 204 206 208 213 216 218 222 225 228 232 236 240 243 246
350 358 7 11 16 14 15 10 12 13 19 22 29 31 33 39 43 46 49 52 57 63 63 66 75 103 148 172 184 192 196 199 202 205 207 210 212 217 220 224 227 231 235 238 242 246 249
348 356 0 11 16 17 14 16 10 10 16 23 26 29 32 36 41 44 48 49 54 59 66 66 66 75 107 149 175 187 194 197 201 205 208 211 213 216 221 225 229 233 237 240 243 248 252
340 350 359 8 19 22 15 18 16 11 16 21 25 27 28 34 36 41 45 48 51 52 57 62 66 68 80 107 152 179 189 196 203 204 208 211 215 218 222 226 230 235 239 244 248 253 257
325 335 352 13 18 25 17 22 23 19 19 19 26 27 24 30 38 39 40 45 48 51 53 57 60 66 70 80 112 155 182 196 202 206 208 212 217 222 226 230 234 239 244 247 251 254 258
301 321 341 13 17 24 29 25 29 24 27 25 27 25 31 31 29 38 44 46 47 49 50 53 58 61 64 75 84 111 161 188 198 206 208 214 219 223 228 233 238 242 247 250 254 258 261
282 301 320 355 18 8 20 31 33 32 27 34 31 27 27 34 43 41 41 45 47 50 52 54 53 55 60 64 71 95 130 161 184 203 212 219 223 229 233 236 241 246 252 257 262 265 269
282 293 292 323 343 354 12 19 29 33 30 31 36 32 31 35 40 45 49 50 50 48 49 54 59 60 58 58 62 68 77 121 176 202 215 225 232 234 237 241 247 252 257 261 264 266 268
270 275 278 293 312 331 354 11 16 18 27 32 43 35 36 32 36 35 40 46 49 51 52 50 51 54 57 58 60 63 67 69 71 75 105 240 244 246 247 249 253 257 260 264 267 269 272
266 261 275 266 287 309 310 321 352 355 3 28 25 15 18 31 33 44 34 34 39 39 44 47 51 52 49 49 48 49 55 52 55 70 92 172 263 262 266 268 269 270 269 270 272 273 276
258 266 264 262 261 284 290 286 309 326 337 337 342 350 349 10 11 22 23 22 15 22 27 36 40 40 36 39 40 34 25 19 21 2 343 292 306 299 282 282 281 290 287 290 290 295 287
258 262 260 257 255 271 279 284 286 290 307 313 316 338 3 354 353 349 353 357 355 354 355 358 358 357 356 0 7 357 347 347 339 318 294 300 291 300 292 277 286 296 293 293 295 298 301
258 263 259 261 252 258 269 277 281 283 287 292 297 301 310 317 330 334 333 333 337 328 336 336 330 323 324 329 323 319 315 313 312 308 306 300 301 300 301 301 298 300 300 300 299 301 301
261 262 264 261 257 253 265 271 276 279 279 279 280 281 286 296 301 304 302 305 311 318 315 316 313 314 314 307 304 305 302 300 298 298 301 299 295 291 290 289 292 291 292 290 291 296 296
251 255 257 266 269 261 264 270 271 275 273 273 268 271 279 278 279 284 294 298 299 301 299 302 305 311 307 307 294 295 298 296 298 296 297 298 296 296 290 288 293 293 291 293 292 292 294
254 256 257 256 264 262 266 264 271 273 273 278 275 274 273 276 278 285 287 288 285 288 295 298 306 301 299 307 308 306 300 297 290 291 292 292 296 295 291 288 288 289 291 293 295 297 294
261 260 254 255 257 264 265 270 271 273 271 274 273 280 285 290 285 281 281 284 285 291 290 289 296 296 298 302 301 302 302 306 305 299 298 294 293 291 290 294 295 293 292 291 292 294 294
261 261 259 256 252 260 260 264 267 271 275 274 276 281 279 279 285 288 285 283 283 288 289 292 293 291 294 296 298 297 297 295 296 301 300 297 296 294 293 294 291 291 290 291 291 293 292
Height
10690 10679 10665 10651 10636 10621 10602 10581 10559 10535 10514 10496 10477 10462 10451 10442 10436 10432 10431 10432 10435 10441 10453 10467 10481 10503 10529 10558 10583 10602 10621 10642 10660 10676 10691 10703 10717 10728 10739 10745 10758 10768 10773 10777 10785 10789 10794
10688 10676 10661 10647 10633 10617 10599 10579 10558 10534 10514 10496 10477 10461 10448 10440 10434 10430 10429 10428 10431 10436 10443 10453 10470 10491 10517 10545 10567 10589 10609 10630 10647 10663 10679 10695 10707 10720 10730 10742 10755 10763 10766 10772 10779 10785 10789
10686 10673 10659 10645 10631 10616 10600 10579 10561 10540 10515 10497 10480 10465 10452 10443 10437 10433 10431 10428 10430 10434 10441 10448 10461 10482 10508 10532 10552 10578 10597 10617 10634 10651 10668 10684 10701 10714 10729 10741 10752 10755 10762 10769 10774 10778 10783
10683 10671 10658 10644 10631 10617 10602 10584 10564 10544 10525 10504 10486 10470 10457 10447 10441 10436 10434 10432 10430 10431 10435 10445 10459 10477 10497 10520 10540 10567 10590 10608 10626 10646 10664 10679 10694 10706 10722 10733 10737 10747 10755 10763 10767 10772 10777
10682 10671 10658 10645 10632 10619 10605 10590 10571 10550 10528 10510 10494 10479 10466 10454 10446 10439 10436 10434 10432 10433 10434 10440 10451 10467 10489 10513 10534 10558 10579 10599 10617 10633 10649 10664 10684 10700 10712 10721 10731 10743 10751 10756 10761 10765 10770
10682 10671 10659 10647 10634 10622 10609 10595 10579 10559 10538 10517 10501 10487 10475 10463 10452 10444 10440 10436 10434 10433 10435 10440 10450 10465 10484 10502 10524 10547 10567 10588 10607 10624 10642 10661 10676 10691 10704 10720 10733 10735 10740 10747 10754 10759 10763
10682 10672 10661 10649 10637 10625 10613 10600 10586 10568 10548 10529 10512 10497 10484 10471 10461 10452 10448 10444 10440 10440 10440 10443 10450 10463 10483 10500 10519 10541 10561 10580 10596 10619 10637 10656 10674 10687 10699 10709 10718 10726 10738 10743 10748 10752 10758
10682 10673 10662 10652 10640 10629 10618 10606 10594 10579 10562 10542 10525 10510 10496 10483 10471 10462 10456 10452 10448 10448 10448 10451 10457 10468 10485 10499 10518 10536 10557 10578 10598 10615 10632 10650 10666 10679 10694 10701 10711 10720 10729 10738 10739 10744 10750
10683 10676 10665 10655 10643 10633 10623 10612 10600 10588 10574 10559 10540 10523 10507 10495 10481 10472 10466 10460 10459 10458 10458 10459 10465 10477 10486 10499 10513 10530 10551 10573 10594 10615 10633 10647 10660 10674 10685 10697 10705 10714 10724 10728 10729 10737 10742
10684 10677 10668 10659 10648 10637 10627 10618 10608 10596 10584 10572 10558 10541 10523 10508 10496 10486 10479 10473 10470 10468 10467 10470 10474 10480 10491 10506 10519 10534 10552 10572 10595 10611 10627 10641 10655 10667 10679 10690 10699 10707 10715 10719 10722 10729 10733
10685 10678 10671 10662 10652 10643 10632 10623 10614 10605 10593 10582 10571 10558 10542 10527 10513 10501 10492 10486 10481 10478 10478 10479 10483 10489 10497 10509 10523 10537 10553 10568 10584 10605 10621 10635 10649 10662 10674 10684 10692 10699 10705 10712 10717 10721 10725
10685 10679 10673 10666 10656 10647 10637 10629 10620 10611 10603 10592 10583 10571 10559 10545 10533 10521 10511 10503 10495 10491 10492 10491 10492 10497 10505 10515 10526 10539 10556 10571 10587 10600 10614 10629 10642 10654 10666 10676 10684 10692 10698 10703 10708 10712 10717
10686 10679 10674 10668 10659 10651 10642 10634 10626 10616 10609 10602 10592 10583 10573 10561 10550 10540 10529 10520 10510 10505 10503 10503 10504 10507 10513 10521 10531 10541 10555 10572 10588 10604 10618 10629 10641 10652 10663 10672 10679 10686 10691 10697 10701 10706 10711
10686 10680 10675 10669 10662 10655 10647 10639 10632 10623 10615 10609 10602 10594 10586 10577 10566 10557 10548 10538 10528 10523 10517 10516 10519 10520 10524 10531 10540 10550 10564 10577 10591 10605 10618 10630 10641 10650 10659 10667 10674 10680 10685 10690 10695 10699 10703
10685 10680 10675 10670 10663 10658 10652 10645 10639 10630 10622 10616 10610 10603 10596 10587 10579 10573 10563 10556 10549 10541 10536 10532 10532 10535 10539 10545 10552 10562 10573 10585 10597 10608 10621 10631 10640 10649 10656 10663 10669 10674 10681 10686 10690 10693 10694
10683 10679 10676 10670 10665 10659 10655 10649 10643 10637 10630 10624 10618 10611 10606 10599 10592 10585 10578 10571 10566 10561 10556 10551 10550 10551 10554 10559 10566 10573 10582 10594 10604 10614 10625 10634 10643 10650 10657 10663 10668 10672 10675 10677 10679 10683 10684
10680 10677 10674 10670 10665 10661 10655 10651 10646 10642 10636 10630 10624 10621 10614 10609 10604 10599 10594 10587 10581 10577 10575 10572 10570 10569 10570 10573 10579 10585 10592 10602 10610 10619 10628 10637 10644 10650 10655 10659 10663 10665 10667 10669 10671 10674 10673
10676 10675 10673 10669 10666 10662 10658 10652 10648 10645 10641 10636 10631 10626 10622 10617 10613 10609 10606 10601 10598 10593 10590 10588 10587 10587 10589 10589 10590 10594 10601 10608 10616 10625 10632 10638 10644 10649 10653 10656 10658 10660 10661 10663 10663 10664 10663
10672 10670 10669 10667 10664 10663 10658 10654 10650 10646 10643 10640 10636 10633 10629 10625 10620 10617 10614 10611 10609 10607 10606 10604 10602 10602 10602 10603 10605 10608 10611 10614 10619 10625 10631 10636 10639 10643 10646 10649 10651 10652 10652 10652 10652 10651 10648
10667 10666 10665 10663 10661 10660 10659 10655 10651 10648 10645 10642 10639 10636 10633 10631 10628 10625 10621 10619 10617 10615 10614 10614 10613 10613 10613 10614 10615 10617 10618 10621 10624 10627 10630 10633 10636 10639 10641 10642 10643 10643 10642 10642 10641 10637 10637
10661 10660 10661 10659 10656 10657 10655 10653 10651 10648 10646 10643 10641 10639 10636 10633 10632 10631 10629 10626 10623 10622 10620 10619 10619 10619 10619 10620 10621 10622 10624 10626 10627 10629 10631 10632 10634 10635 10636 10637 10637 10636 10633 10632 10630 10626 10625
10652 10653 10653 10653 10652 10651 10651 10650 10647 10646 10645 10643 10640 10638 10636 10635 10633 10632 10631 10630 10628 10627 10627 10626 10624 10624 10623 10623 10624 10625 10625 10627 10628 10629 10630 10630 10631 10630 10630 10630 10630 10625 10622 10620 10616 10611 10610
10643 10644 10644 10645 10645 10645 10644 10644 10643 10642 10642 10640 10638 10635 10634 10633 10632 10630 10630 10629 10629 10628 10627 10626 10626 10627 10626 10626 10626 10625 10625 10625 10625 10625 10624 10624 10624 10623 10621 10621 10620 10617 10609 10606 10602 10597 10593
10634 10635 10635 10636 10636 10636 10637 10637 10637 10636 10636 10635 10634 10633 10630 10629 10627 10628 10627 10626 10625 10625 10624 10624 10624 10623 10622 10622 10621 10621 10621 10620 10619 10618 10617 10616 10615 10613 10611 10608 10608 10602 10597 10590 10585 10579 10574
10622 10624 10626 10625 10626 10627 10627 10628 10629 10629 10628 10629 10628 10628 10626 10625 10624 10622 10621 10621 10620 10619 10619 10618 10618 10618 10617 10617 10616 10615 10613 10611 10609 10607 10606 10604 10602 10600 10598 10596 10595 10590 10585 10577 10572 10569 10560
10610 10611 10614 10616 10617 10617 10618 10618 10619 10619 10619 10618 10620 10619 10619 10618 10616 10616 10614 10613 10612 10612 10611 10610 10611 10610 10610 10609 10607 10606 10604 10602 10600 10597 10592 10590 10588 10585 10582 10581 10580 10574 10566 10560 10554 10551 10540
10596 10599 10600 10603 10604 10605 10607 10607 10607 10608 10608 10608 10608 10609 10609 10608 10606 10607 10606 10604 10604 10603 10600 10599 10600 10599 10597 10598 10596 10595 10593 10591 10588 10584 10578 10572 10569 10566 10560 10559 10560 10552 10545 10538 10532 10527 10518
10582 10586 10587 10589 10590 10591 10591 10593 10594 10595 10596 10596 10595 10596 10596 10597 10596 10594 10595 10593 10591 10592 10592 10587 10585 10584 10584 10582 10582 10579 10578 10574 10571 10569 10563 10558 10552 10547 10541 10536 10534 10529 10520 10514 10507 10500 10492
10566 10570 10572 10573 10574 10575 10576 10577 10578 10579 10580 10581 10582 10582 10582 10581 10583 10581 10580 10580 10578 10577 10575 10574 10573 10570 10568 10566 10566 10565 10562 10559 10554 10550 10543 10537 10531 10525 10519 10516 10507 10503 10495 10489 10481 10472 10464